Terminal Aerodrome Forecast
Issued by NWS

Home | Current Version | Previous Version | Text Only | Print | Product List | Glossary On
Versions: 1 2 3 4 5 6 7 8 9 10 11 12 13 14 15 16 17
581
FTUS43 KLSX 210135 AAA
TAFCPS
TAF AMD
KCPS 210135Z 2102/2124 22006KT P6SM VCTS BKN050CB
      TEMPO 2102/2103 3SM -TSRA BKN035CB
     FM210400 25005KT P6SM OVC060
     FM210900 29007KT P6SM SCT200
     FM211800 28011G18KT P6SM SCT110=

USA.gov is the U.S. government's official web portal to all federal, state and local government web resources and services.